FW5236 Weather Reports


time (UTC)temp
F
wind
direction
speed
knots
gust
knots
rain 1hr
in
rain 24hr
in
rain mn
in
humidity
%
barometer
mb
20260902171529 67 206 0.0 0.0 0.00 0.00 0.00 54 1011.0
20260902170030 0 0 0.0 0.0 0.00 0.00 0.00 100
20260902164529 0 0 0.0 0.0 0.00 0.00 0.00 100
20260902163106 58 225 1.7 1.7 0.00 0.00 0.00 73 1012.0
20260902161531 0 0 0.0 0.0 0.00 0.00 0.00 100
20260902160030 0 0 0.0 0.0 0.00 0.00 0.00 100
20260902150035 52 227 0.9 3.5 0.00 0.00 0.00 84 1012.5
20260902144706 0 0 0.0 0.0 0.00 0.00 0.00 100
20260902141606 48 230 0.9 2.6 0.00 0.00 0.00 88 1012.6
20260902140031 47 231 1.7 3.5 0.00 0.00 0.00 89 1012.6
20260902134604 47 227 2.6 3.5 0.00 0.00 0.00 88 1012.6
20260902133032 48 225 1.7 2.6 0.00 0.00 0.00 88 1012.7
20260902131532 48 221 1.7 2.6 0.00 0.00 0.00 88 1012.8
20260902124529 49 223 0.9 2.6 0.00 0.00 0.00 87 1012.9
20260902123033 50 226 1.7 3.5 0.00 0.00 0.00 87 1012.9
20260902121531 50 228 0.9 3.5 0.00 0.00 0.00 87 1013.0
20260902114604 51 232 0.9 3.5 0.00 0.00 0.00 86 1013.0
20260902113122 51 225 0.9 2.6 0.00 0.00 0.00 86 1013.0
20260902111540 51 225 0.9 2.6 0.00 0.00 0.00 85 1013.1
20260902110039 51 225 1.7 2.6 0.00 0.00 0.00 84 1013.1
20260902104539 52 240 0.9 3.5 0.00 0.00 0.00 83 1012.9
20260902103040 53 278 0.0 1.7 0.00 0.00 0.00 81 1012.9
20260902101541 54 274 0.0 1.7 0.00 0.00 0.00 81 1013.0
20260902100040 54 316 0.0 1.7 0.00 0.00 0.00 81 1012.9
20260902094540 54 298 0.0 1.7 0.00 0.00 0.00 80 1013.0
20260902093038 55 279 0.0 1.7 0.00 0.00 0.00 78 1013.1
20260902091541 56 28 0.0 1.7 0.00 0.00 0.00 77 1013.0
20260902090044 56 25 0.0 3.5 0.00 0.00 0.00 77 1013.0
20260902084540 57 23 0.0 3.5 0.00 0.00 0.00 77 1013.1
20260902083039 57 35 0.0 3.5 0.00 0.00 0.00 77 1012.9
20260902081538 57 36 0.9 3.5 0.00 0.00 0.00 75 1013.0
20260902080039 57 32 0.0 3.5 0.00 0.00 0.00 74 1013.0
20260902074540 58 37 0.0 3.5 0.00 0.00 0.00 73 1013.1
20260902073040 58 44 0.9 4.3 0.00 0.00 0.00 73 1013.3
20260902071540 58 35 0.9 5.2 0.00 0.00 0.00 73 1013.2
20260902070038 59 43 0.0 3.5 0.00 0.00 0.00 72 1013.4
20260902064542 59 41 0.0 3.5 0.00 0.00 0.00 70 1013.5
20260902063039 59 42 0.9 6.1 0.00 0.00 0.00 70 1013.2
20260902061542 59 34 0.9 6.1 0.00 0.00 0.00 69 1013.3
20260902060124 60 47 0.9 4.3 0.00 0.00 0.00 69 1013.2
20260902054539 60 35 0.9 5.2 0.00 0.00 0.00 68 1013.5
20260902053040 60 37 0.0 3.5 0.00 0.00 0.00 67 1013.4
20260902051538 60 55 0.9 6.1 0.00 0.00 0.00 67 1013.0
20260902050038 60 51 0.9 7.8 0.00 0.00 0.00 67 1012.9
20260902043039 60 49 0.9 7.8 0.00 0.00 0.00 69 1012.7
20260902041540 61 46 0.9 5.2 0.00 0.00 0.00 67 1012.4
20260902040038 62 46 1.7 6.1 0.00 0.00 0.00 63 1012.1
20260902034539 62 46 2.6 10.4 0.00 0.00 0.00 62 1011.9
20260902033120 62 50 1.7 7.8 0.00 0.00 0.00 62 1011.8
20260902031538 63 49 2.6 7.8 0.00 0.00 0.00 61 1011.4
20260902030031 63 51 1.7 6.1 0.00 0.00 0.00 60 1011.5
20260902024530 63 47 1.7 8.7 0.00 0.00 0.00 58 1011.5
20260902023032 64 47 1.7 9.6 0.00 0.00 0.00 58 1011.4
20260902021533 64 39 2.6 9.6 0.00 0.00 0.00 57 1011.3
20260902020030 64 39 2.6 12.2 0.00 0.00 0.00 56 1011.1
20260902014531 65 46 1.7 6.1 0.00 0.00 0.00 56 1011.0
20260902013033 66 48 1.7 7.8 0.00 0.00 0.00 55 1010.8
20260902010030 66 45 2.6 8.7 0.00 0.00 0.00 55 1010.3
20260902001537 69 44 2.6 9.6 0.00 0.00 0.00 50 1010.3
20260902000032 70 47 2.6 7.8 0.00 0.00 0.00 50 1010.3
20260901234532 70 41 1.7 9.6 0.00 0.00 0.00 50 1010.3
20260901233106 69 46 2.6 7.0 0.00 0.00 0.00 51 1010.5
20260901231533 70 48 1.7 7.8 0.00 0.00 0.00 49 1010.4
20260901230031 71 42 2.6 11.3 0.00 0.00 0.00 47 1010.4
20260901224532 73 48 2.6 10.4 0.00 0.00 0.00 45 1010.3
20260901223107 74 49 2.6 9.6 0.00 0.00 0.00 44 1010.3
20260901221650 76 40 2.6 7.0 0.00 0.00 0.00 43 1010.2
20260901220041 76 36 2.6 7.8 0.00 0.00 0.00 42 1010.0
20260901213030 77 35 1.7 7.8 0.00 0.00 0.00 42 1010.2
20260901210105 77 49 1.7 4.3 0.00 0.00 0.00 41 1010.3
20260901204531 78 46 0.9 5.2 0.00 0.00 0.00 41 1010.6
20260901203031 78 41 1.7 7.8 0.00 0.00 0.00 40 1010.7
20260901201530 78 40 0.9 5.2 0.00 0.00 0.00 40 1010.9
20260901194531 78 38 0.9 4.3 0.00 0.00 0.00 41 1011.3
20260901193030 78 45 0.9 3.5 0.00 0.00 0.00 41 1011.5
20260901191531 77 56 0.9 6.1 0.00 0.00 0.00 43 1011.7
20260901190106 75 44 0.9 5.2 0.00 0.00 0.00 45 1011.8
20260901183034 73 18 0.0 2.6 0.00 0.00 0.00 48 1012.0
20260901181530 71 45 0.0 2.6 0.00 0.00 0.00 51 1012.1
20260901180108 70 43 0.9 7.8 0.00 0.00 0.00 53 1012.1
20260901174531 68 49 0.9 4.3 0.00 0.00 0.00 56 1012.0
20260901173107 66 39 0.9 6.1 0.00 0.00 0.00 59 1012.0